When you browse on this site, cookies collect data to enhance your experience and personalize the content and advertising you see.
Visit our Privacy Policy to learn more. By continuing to use the site, you agree to this use of cookies and data.
  • In Lithuania
  • List of Countries
  • For 7 days
  • Water Temperature
  • Satellite Maps
  • Weather Map
  • Weather Widgets
  • user-avatar
    Login

    Hourly Weather Muchowiec

    Today, 17 February, Sunday

    Time Temperature Precipitation Wind Pressure Humidity
    00:00 +4°C° 0 mm 3 mps 754 mmHg 58%
    01:00 +4°C° 0 mm 3 mps 754 mmHg 58%
    02:00 +4°C° 0 mm 3 mps 754 mmHg 59%
    03:00 +4°C° 0 mm 2 mps 754 mmHg 59%
    04:00 +4°C° 0 mm 2 mps 754 mmHg 60%
    05:00 +4°C° 0 mm 2 mps 754 mmHg 60%
    06:00 +3°C° 0 mm 2 mps 754 mmHg 61%
    07:00 +4°C° 0 mm 1 mps 754 mmHg 58%
    08:00 +5°C° 0 mm 1 mps 754 mmHg 55%
    09:00 +7°C° 0 mm 1 mps 754 mmHg 53%
    10:00 +9°C° 0 mm 1 mps 754 mmHg 50%
    11:00 +10°C° 0 mm 1 mps 754 mmHg 47%
    12:00 +12°C° 0 mm 1 mps 754 mmHg 44%
    13:00 +14°C° 0 mm 1 mps 754 mmHg 40%
    14:00 +13°C° 0 mm 1 mps 754 mmHg 45%
    15:00 +13°C° 0 mm 1 mps 753 mmHg 50%
    16:00 +12°C° 0 mm 1 mps 753 mmHg 54%
    17:00 +11°C° 0 mm 1 mps 753 mmHg 58%
    18:00 +9°C° 0 mm 1 mps 753 mmHg 62%
    19:00 +8°C° 0 mm 1 mps 753 mmHg 65%
    20:00 +7°C° 0 mm 1 mps 753 mmHg 65%
    21:00 +7°C° 0 mm 1 mps 753 mmHg 64%
    22:00 +6°C° 0 mm 1 mps 753 mmHg 64%
    23:00 +5°C° 0 mm 2 mps 753 mmHg 63%

    Tomorrow, 18 February, Monday

    Time Temperature Precipitation Wind Pressure Humidity
    00:00 +5°C° 0 mm 2 mps 753 mmHg 62%
    01:00 +4°C° 0 mm 2 mps 753 mmHg 61%
    02:00 +4°C° 0 mm 2 mps 753 mmHg 61%
    03:00 +4°C° 0 mm 2 mps 753 mmHg 61%
    04:00 +3°C° 0 mm 2 mps 752 mmHg 61%
    05:00 +4°C° 0 mm 1 mps 752 mmHg 61%
    06:00 +4°C° 0 mm 1 mps 752 mmHg 62%
    07:00 +4°C° 0 mm 1 mps 752 mmHg 62%
    08:00 +6°C° 0 mm 1 mps 752 mmHg 59%
    09:00 +7°C° 0 mm 1 mps 752 mmHg 55%
    10:00 +9°C° 0 mm 1 mps 752 mmHg 51%
    11:00 +11°C° 0 mm 1 mps 752 mmHg 48%
    12:00 +12°C° 0 mm 1 mps 752 mmHg 44%
    13:00 +13°C° 0 mm 1 mps 751 mmHg 41%
    14:00 +13°C° 0 mm 1 mps 751 mmHg 45%
    15:00 +13°C° 0 mm 1 mps 751 mmHg 49%
    16:00 +12°C° 0 mm 1 mps 750 mmHg 53%
    17:00 +11°C° 0 mm 1 mps 750 mmHg 58%
    18:00 +8°C° 0 mm 2 mps 750 mmHg 62%
    19:00 +6°C° 0 mm 2 mps 750 mmHg 67%
    20:00 +6°C° 0 mm 2 mps 750 mmHg 68%
    21:00 +5°C° 0 mm 2 mps 750 mmHg 69%
    22:00 +5°C° 0 mm 2 mps 750 mmHg 70%
    23:00 +4°C° 0 mm 2 mps 749 mmHg 71%

    Day after tomorrow, 19 February, Tuesday

    Time Temperature Precipitation Wind Pressure Humidity
    00:00 +4°C° 0 mm 2 mps 749 mmHg 73%
    01:00 +3°C° 0 mm 3 mps 749 mmHg 74%
    02:00 +2°C° 0 mm 3 mps 749 mmHg 75%
    03:00 +2°C° 0 mm 3 mps 749 mmHg 76%
    04:00 +2°C° 0 mm 3 mps 748 mmHg 77%
    05:00 +2°C° 0 mm 3 mps 748 mmHg 79%
    06:00 +1°C° 0 mm 3 mps 748 mmHg 80%
    07:00 +2°C° 0 mm 2 mps 748 mmHg 82%
    08:00 +3°C° 0 mm 3 mps 748 mmHg 76%
    09:00 +5°C° 0 mm 3 mps 748 mmHg 70%
    10:00 +7°C° 0 mm 3 mps 748 mmHg 64%
    11:00 +8°C° 0 mm 4 mps 748 mmHg 60%
    12:00 +10°C° 0 mm 4 mps 747 mmHg 56%
    13:00 +11°C° 0 mm 4 mps 747 mmHg 53%
    14:00 +10°C° 0 mm 4 mps 747 mmHg 55%
    15:00 +10°C° 0 mm 4 mps 747 mmHg 57%
    16:00 +8°C° 0 mm 4 mps 746 mmHg 60%
    17:00 +7°C° 0 mm 4 mps 747 mmHg 64%
    18:00 +6°C° 0 mm 4 mps 747 mmHg 68%
    19:00 +5°C° 0 mm 4 mps 747 mmHg 72%
    20:00 +5°C° 0.4 mm 4 mps 747 mmHg 77%
    21:00 +5°C° 0.4 mm 5 mps 748 mmHg 83%
    22:00 +5°C° 0.4 mm 5 mps 748 mmHg 88%
    23:00 +5°C° 0.1 mm 5 mps 748 mmHg 88%

    20 February, Wednesday

    Time Temperature Precipitation Wind Pressure Humidity
    00:00 +4°C° 0.1 mm 4 mps 749 mmHg 88%
    01:00 +4°C° 0.1 mm 4 mps 749 mmHg 88%
    02:00 +3°C° 0 mm 4 mps 749 mmHg 88%
    03:00 +3°C° 0 mm 4 mps 749 mmHg 88%
    04:00 +1°C° 0 mm 4 mps 750 mmHg 87%
    05:00 +1°C° 0 mm 4 mps 750 mmHg 88%
    06:00 +1°C° 0 mm 4 mps 750 mmHg 88%
    07:00 +1°C° 0 mm 4 mps 751 mmHg 88%
    08:00 +3°C° 0 mm 4 mps 751 mmHg 83%
    09:00 +3°C° 0 mm 5 mps 751 mmHg 79%
    10:00 +5°C° 0 mm 5 mps 751 mmHg 75%
    11:00 +6°C° 0 mm 5 mps 751 mmHg 71%
    12:00 +6°C° 0 mm 5 mps 751 mmHg 67%
    13:00 +7°C° 0 mm 5 mps 751 mmHg 63%
    14:00 +6°C° 0 mm 5 mps 752 mmHg 64%
    15:00 +6°C° 0 mm 4 mps 752 mmHg 64%
    16:00 +6°C° 0 mm 4 mps 752 mmHg 64%
    17:00 +6°C° 0 mm 4 mps 752 mmHg 68%
    18:00 +5°C° 0 mm 3 mps 752 mmHg 72%
    19:00 +4°C° 0 mm 3 mps 753 mmHg 76%
    20:00 +4°C° 0 mm 3 mps 753 mmHg 78%
    21:00 +4°C° 0 mm 3 mps 753 mmHg 79%
    22:00 +4°C° 0 mm 3 mps 753 mmHg 80%
    23:00 +3°C° 0 mm 3 mps 753 mmHg 82%

    21 February, Thursday

    Time Temperature Precipitation Wind Pressure Humidity
    00:00 +3°C° 0 mm 3 mps 754 mmHg 83%
    01:00 +2°C° 0 mm 3 mps 754 mmHg 85%
    02:00 +2°C° 0 mm 3 mps 754 mmHg 85%
    03:00 +2°C° 0 mm 3 mps 754 mmHg 85%
    04:00 +2°C° 0 mm 3 mps 754 mmHg 86%
    05:00 +2°C° 0 mm 3 mps 754 mmHg 86%
    06:00 +2°C° 0 mm 3 mps 754 mmHg 86%
    07:00 +2°C° 0 mm 3 mps 754 mmHg 87%
    08:00 +3°C° 0 mm 3 mps 754 mmHg 82%
    09:00 +4°C° 0 mm 3 mps 755 mmHg 76%
    10:00 +6°C° 0 mm 4 mps 755 mmHg 71%
    11:00 +6°C° 0 mm 4 mps 755 mmHg 68%
    12:00 +7°C° 0 mm 4 mps 755 mmHg 65%
    13:00 +8°C° 0 mm 4 mps 755 mmHg 61%
    14:00 +7°C° 0 mm 4 mps 754 mmHg 64%
    15:00 +7°C° 0 mm 4 mps 754 mmHg 67%
    16:00 +8°C° 0 mm 3 mps 754 mmHg 69%
    17:00 +7°C° 0.1 mm 3 mps 754 mmHg 73%
    18:00 +7°C° 0.1 mm 3 mps 755 mmHg 77%
    19:00 +5°C° 0.1 mm 3 mps 755 mmHg 81%
    20:00 +5°C° 0.2 mm 3 mps 755 mmHg 82%
    21:00 +6°C° 0.2 mm 2 mps 755 mmHg 83%
    22:00 +6°C° 0.2 mm 2 mps 756 mmHg 84%
    23:00 +6°C° 0.1 mm 2 mps 756 mmHg 85%

    22 February, Friday

    Time Temperature Precipitation Wind Pressure Humidity
    00:00 +6°C° 0.1 mm 2 mps 756 mmHg 87%
    01:00 +6°C° 0.1 mm 2 mps 756 mmHg 88%
    02:00 +5°C° 0 mm 2 mps 756 mmHg 89%
    03:00 +5°C° 0 mm 2 mps 756 mmHg 90%
    04:00 +4°C° 0 mm 2 mps 756 mmHg 92%
    05:00 +5°C° 0.1 mm 2 mps 757 mmHg 93%
    06:00 +5°C° 0.1 mm 2 mps 758 mmHg 94%
    07:00 +5°C° 0.1 mm 2 mps 758 mmHg 95%
    08:00 +5°C° 0.1 mm 2 mps 759 mmHg 94%
    09:00 +6°C° 0.1 mm 2 mps 759 mmHg 94%
    10:00 +6°C° 0.1 mm 2 mps 760 mmHg 93%
    11:00 +7°C° 0 mm 2 mps 760 mmHg 89%
    12:00 +7°C° 0 mm 2 mps 761 mmHg 85%
    13:00 +8°C° 0 mm 2 mps 761 mmHg 82%
    14:00 +8°C° 0.1 mm 2 mps 761 mmHg 82%
    15:00 +8°C° 0.1 mm 2 mps 762 mmHg 83%
    16:00 +8°C° 0.1 mm 2 mps 762 mmHg 84%
    17:00 +7°C° 0.1 mm 2 mps 762 mmHg 86%
    18:00 +6°C° 0.1 mm 2 mps 763 mmHg 89%
    19:00 +6°C° 0.1 mm 2 mps 763 mmHg 91%
    20:00 +6°C° 0 mm 2 mps 764 mmHg 91%
    21:00 +6°C° 0 mm 1 mps 764 mmHg 91%
    22:00 +6°C° 0 mm 1 mps 764 mmHg 91%
    23:00 +6°C° 0 mm 1 mps 765 mmHg 89%
    Show more